Left ArrowRight Arrow

Hourly Observations for January 11, 2016

Temp ( °F °C ) Dew Point ( °F °C ) Humidity (%) Winds ( mph kmh ) Pressure ( in mb ) Visibility ( mi km ) Precip ( " mm )
12:58 am 00:58 Clear 11 -11.6 9 -12.9 90 90 ESE 1 2 30.04 1017 10 16 0.00 0.00
1:58 am 01:58 Clear 12 -11.1 10 -12.5 90 90 E 2 4 30.02 1017 10 16 0.00 0.00
2:58 am 02:58 Clear 12 -11.2 10 -12.5 90 90 SE 1 2 30.01 1016 10 16 0.00 0.00
3:58 am 03:58 Mostly Cloudy 12 -11.1 10 -12.3 91 91 E 3 6 30.00 1016 10 16 0.00 0.00
4:08 am 04:08 Partly Cloudy with Scattered Snow Showers 12 -11 10 -12 92 92 Calm 30.03 1017 10 16 0.00 0.00
4:19 am 04:19 Mostly Clear 12 -11 10 -12 92 92 Calm 30.03 1017 10 16 0.00 0.00
4:58 am 04:58 Mostly Cloudy 13 -10.5 11 -11.7 91 91 W 1 2 29.99 1016 10 16 0.00 0.03
5:58 am 05:58 Cloudy 14 -9.9 12 -11.1 91 91 VRB 1 2 29.98 1015 10 16 0.00 0.00
6:58 am 06:58 Cloudy 17 -8.5 15 -9.5 93 93 Calm 29.99 1016 10 16 0.00 0.00
7:58 am 07:58 Cloudy 18 -7.9 16 -8.8 93 93 Calm 29.98 1015 10 16 0.00 0.00
8:58 am 08:58 Cloudy 20 -6.6 18 -8 90 90 NW 2 4 29.99 1016 10 16 0.00 0.00
9:21 am 09:21 Cloudy with Light Snow 21 -6 18 -8 86 86 WNW 3 6 30.00 1016 10 16 0.00 0.00
9:58 am 09:58 Cloudy with Light Snow 23 -5.2 20 -6.9 88 88 WNW 1 2 30.01 1016 10 16 0.00 0.03
10:01 am 10:01 Mostly Cloudy 23 -5 19 -7 86 86 WNW 2 4 30.00 1016 10 16 0.00 0.00
10:58 am 10:58 Mostly Cloudy 27 -2.7 21 -6.1 78 78 NW 9 15 30.00 1016 10 16 0.00 0.03
11:48 am 11:48 Mostly Sunny 30 -1 19 -7 64 64 NW 17 28 30.00 1016 10 16 0.00 0.00
11:58 am 11:58 Mostly Sunny 29 -1.4 19 -7.4 64 64 WNW 20 31 30.00 1016 10 16 0.00 0.00
12:58 pm 12:58 Sunny 29 -1.6 17 -8.6 59 59 WNW 18 30 29.97 1015 10 16 0.00 0.00
1:58 pm 13:58 Mostly Cloudy 31 -0.5 19 -7.3 60 60 NW 12 19 29.96 1014 10 16 0.00 0.00
2:58 pm 14:58 Cloudy 29 -1.6 18 -7.8 63 63 WNW 15 24 29.97 1015 10 16 0.00 0.00
3:58 pm 15:58 Cloudy 30 -1.2 19 -7.1 65 65 W 9 15 29.97 1015 10 16 0.00 0.00
4:58 pm 16:58 Cloudy 30 -1 21 -6.2 68 68 W 10 17 29.97 1015 10 16 0.00 0.00
5:58 pm 17:58 Cloudy 31 -0.8 22 -5.4 71 71 WSW 6 9 29.96 1014 10 16 0.00 0.00
6:58 pm 18:58 Cloudy 31 -0.3 24 -4.6 73 73 WSW 6 9 29.93 1014 10 16 0.00 0.00
7:58 pm 19:58 Cloudy 33 0.8 25 -3.9 71 71 WSW 13 20 29.92 1013 10 16 0.00 0.00
8:58 pm 20:58 Cloudy 34 1 26 -3.3 73 73 W 8 13 29.93 1014 10 16 0.00 0.00
9:58 pm 21:58 Cloudy 34 1.2 26 -3.1 73 73 W 9 15 29.92 1013 10 16 0.00 0.00
10:46 pm 22:46 Cloudy with Light Rain 36 2 27 -3 70 70 WNW 20 31 29.91 1013 10 16 0.00 0.00
10:58 pm 22:58 Cloudy with Light Rain 36 2.2 27 -3 69 69 WNW 21 33 29.93 1014 10 16 0.00 0.03
11:20 pm 23:20 Windy with Snow Likely 34 1 25 -4 70 70 NNW 22 35 29.94 1014 10 16 0.00 0.00

Powered by Vaisala Xweather